Location: Long Barn
(38.0930°N, 120.1344°W)
Time: 18:39:12
(UTC+00:00)

Cosmos 1939 Rocket - Pass Details

Date: 05 August 2024
Orbit: 511 x 552 km, 97.5° (Epoch: 12 September)

Event Time Altitude Azimuth Distance (km) Brightness Sun altitude
Rises 12:06:49 0° 21° (NNE) 2,637 7.2 -11.4°
Reaches altitude 10° 12:09:02 10° 30° (NNE) 1,750 6.4 -11.1°
Maximum altitude 12:12:32 36° 98° (E) 843 4.3 -10.5°
Drops below altitude 10° 12:16:02 10° 166° (SSE) 1,756 5.2 -9.9°
Sets 12:18:16 0° 175° (S) 2,648 6.1 -9.5°
